www.pogodaiklimat.ru

Погода и климат >> Архив погоды >> Индия >> Chandrapur


ПОГОДА в Chandrapur

  • Прогноз погоды в Chandrapur
  • Монитор погоды в Chandrapur
  • Климат города

АРХИВ ПОГОДЫ в Chandrapur

Время (UTC), дата Ветер
(напр.,м/с)
 
Видим.   Явления Облачность Т
(С)
Тd
(С)
f
(%)
Тe
(С)
Тes
(С)
Комфортность P
(гПа)
Po
(гПа)
Тmin
(С)
Tmax
(С)
R
(мм)
R24
(мм)
S
(см)
03 14.10 СЗ 2 2000 м 5/5 600 м
[Cb calv]
+27.4 +25.1 87 +39 +42 очень
душно
1007.8 1008.0 +25.6
06 14.10 С 2 2000 м 6/6 600 м
[Sc diur, vesp Ac trans]
+32.2 +25.8 69 +47 +54 опасность
перегрева
1006.6 1007.0
09 14.10 СВ 2 2000 м 6/6 600 м
[Sc diur, vesp As op]
+34.4 +25.8 61 +50 +54 опасность
перегрева
1003.4 1003.0
12 14.10 СВ 2 2000 м 8/8 600 м
[Sc diur, vesp Ac lent]
+32.4 +25.7 68 +48 +48 опасность
перегрева
1002.7 1003.0 +34.8
03 15.10 В 2 2000 м 9/8 600 м
[Sc diur, vesp As op]
+28.2 +25.1 83 +41 +41 опасность
перегрева
1007.8 1008.0 +25.8
06 15.10 С 2 2000 м 6/6 600 м
[Sc diur, vesp As op]
+33.2 +26.2 67 +49 +56 опасность
перегрева
1007.3 1007.0
09 15.10 СВ 2 2000 м 6/6 600 м
[Sc diur, vesp As op]
+34.0 +27.3 68 +53 +57 опасность
перегрева
1004.2 1004.0
12 15.10 СВ 2 2000 м 8/8 600 м
[Sc diur, vesp Ac lent]
+33.8 +28.1 72 +55 +55 опасность
перегрева
1003.2 1003.0 +35.0
03 16.10 СЗ 2 4000 м 6/6 600 м
[Sc diur, vesp As op]
+27.2 +24.6 86 +39 +41 очень
душно
1008.8 1009.0 +25.2
06 16.10 С 2 4000 м 6/6 600 м
[Sc diur, vesp As op]
+33.4 +27.1 70 +52 +59 опасность
перегрева
1007.4 1007.0
09 16.10 СВ 2 2000 м 6/6 600 м
[Sc diur, vesp As op]
+34.6 +25.7 60 +50 +54 опасность
перегрева
1004.3 1004.0
12 16.10 С 2 2000 м 6/6 600 м
[Sc diur, vesp As op]
+33.8 +26.6 66 +51 +51 опасность
перегрева
1004.4 1004.0 +35.2
03 17.10 СЗ 2 4000 м 5/5 600 м
[Cb calv]
+25.6 +23.6 89 +35 +37 очень
душно
1008.8 1009.0 +24.6
06 17.10 С 2 2000 м 6/4 600 м
[Sc diur, vesp As op]
+32.0 +25.8 70 +47 +55 опасность
перегрева
1007.2 1007.0
09 17.10 СВ 2 2000 м 6/3 600 м
[Sc Ac trans]
+35.2 +27.9 66 +56 +62 опасность
перегрева
1004.2 1004.0
12 17.10 В 2 2000 м 8/4 600 м
[Sc diur, vesp Ac lent]
+33.4 +26.5 67 +50 +50 опасность
перегрева
1004.3 1004.0 +35.6
03 18.10 С 2 2000 м 5/5 600 м
[Cb calv]
+32.6 +20.2 48 +39 +41 очень
душно
1008.9 1009.0 +21.4
06 18.10 В 2 2000 м 6/4 600 м
[Sc Ac trans]
+30.6 +23.0 64 +41 +49 опасность
перегрева
1007.6 1008.0
09 18.10 Ю 2 2000 м 8/8 600 м
[Sc diur, vesp Ac lent]
+32.8 +26.1 68 +49 +51 опасность
перегрева
1004.8 1005.0
12 18.10 В 2 2000 м 5/5 600 м
[Cb calv]
+31.4 +25.5 71 +46 +46 опасность
перегрева
1005.7 1006.0 +33.8
03 19.10 ЮЗ 2 2000 м 3/3 600 м
[Cu hum]
+23.8 +20.7 83 +30 +33 очень
душно
1007.5 1008.0 +21.4
06 19.10 СЗ 2 4000 м 3/3 600 м
[Cu hum]
+29.4 +24.5 75 +42 +53 опасность
перегрева
1006.5 1007.0
09 19.10 СЗ 2 4000 м 3/3 600 м
[Cu hum]
+32.8 +27.9 76 +53 +61 опасность
перегрева
1003.3 1003.0
12 19.10 С 2 4000 м 3/3 600 м
[Cu hum]
+31.4 +27.0 78 +49 +50 опасность
перегрева
1003.5 1004.0 +33.6
03 20.10 СЗ 2 4000 м 3/3 600 м
[Cu hum]
+26.6 +24.0 86 +37 +40 очень
душно
1008.0 1008.0 +23.6
06 20.10 СВ 2 4000 м 3/3 600 м
[Cu hum]
+31.2 +25.9 73 +46 +58 опасность
перегрева
1007.5 1008.0
09 20.10 ЮЗ 2 4000 м 3/3 600 м
[Cu hum]
+34.0 +28.3 72 +55 +63 опасность
перегрева
1003.5 1004.0
12 20.10 СВ 2 2000 м 10/8 600 м
[Sc diur, vesp As op]
+31.4 +27.3 79 +50 +50 опасность
перегрева
1004.7 1005.0 +37.2

 

Местоположение метеостанции Chandrapur (Maharashtra, Индия): широта 19.97 долгота 79.30 высота над уровнем моря 193 м.

В архиве по умолчанию представлена погода в Chandrapur за последнюю неделю. Архивные данные за месяц целиком и за предыдущие месяцы, начиная с января 2011 года, Вы можете получить, выбрав интересующий диапазон дат из раскрывающегося списка и нажав кнопку "Ввод!".

Внимание! Время в таблицах - всемирное. Для получения местного времени необходимо прибавить поправку, которая в Chandrapur равна 5.5 ч.

Смотрите также архив погоды в соседних городах и на ближайших метеорологических станциях:

Погода в Adilabad (Telangana, Индия) (88 км)
Погода в Bramhapuri (Maharashtra, Индия) (91 км)
Погода в Wardha (Maharashtra, Индия) (108 км)
Погода в Nagpur (Maharashtra, Индия) (128 км)
Погода в Yeotmal (Maharashtra, Индия) (129 км)
Погода в Ramgundam (Telangana, Индия) (134 км)
Погода в Amraoti (Maharashtra, Индия) (191 км)
Погода в Gondia (Maharashtra, Индия) (191 км)
Погода в Nizamabad (Telangana, Индия) (192 км)
Погода в Hanamkonda (Telangana, Индия) (219 км)

Пояснения к столбцам:

Ветер - указаны скорость ветра в м/с - средняя за 10 мин, порывы в срок и между сроками (в фигурных скобках) и направление, откуда дует ветер: С - северный, СВ - северо-восточный, В - восточный, ЮВ - юго-восточный, Ю - южный, ЮЗ - юго-западный, З - западный, СЗ - северо-западный.
Видимость - горизонтальная дальность видимости в метрах или километрах. При видимости от 1 до 10 км при отсутствии осадков обычно наблюдается дымка, при ухудшении видимости до 1 км и менее - туман. В сухую погоду видимость может ухудшаться дымом, пылью или мглою.
Явления - указаны атмосферные явления, наблюдавшиеся в срок или в последний час перед сроком; фигурными скобками обозначены явления, наблюдавшиеся между сроками (за 1-3 часа до срока); квадратными скобками обозначены град или гололедные отложения с указанием их диаметра в мм.
Облачность - указаны через наклонную черту общая и нижняя облачность в баллах и высота нижней границы облаков в метрах; квадратными скобками обозначены формы облаков: Ci - перистые, Cs - перисто-слоистые, Cc - перисто-кучевые, Ac - высококучевые, As - высокослоистые, Sc - слоисто-кучевые, Ns - слоисто-дождевые, Cu - кучевые, Cb - кучево-дождевые. Подробнее классификацию облаков см. в Атласе облаков (PDF).
T - Температура воздуха - температура, измеренная на высоте 2 м над землей.
Td - Температура точки росы - температура, при понижении до которой содержащийся в воздухе водяной пар достигнет насыщения.
f - Относительная влажность воздуха - влажноcть воздуха, измеренная на высоте 2 м над землей.
Te - Эффективная температура - температура, которую ощущает одетый по сезону человек в тени. Характеристика душности погоды. При расчете учитывается влияние влажности воздуха и скорости ветра на теплоощущения человека.
Tes - Эффективная температура на солнце - температура, которую ощущает человек, с поправкой на солнечный нагрев. Характеристика знойности погоды. Зависит от высоты солнца над горизонтом, облачности и скорости ветра. Ночью, в пасмурную погоду, а также при ветре 12 м/с и более поправка равна нулю.
P - Атмосферное давление - приведенное к уровню моря атмосферное давление.
Po - Атмосферное давление - измеренное на уровне метеостанции атмосферное давление.
Tmin - Минимальная температура - минимум температуры воздуха на высоте 2 м над землей.
Tmax - Максимальная температура - максимум температуры воздуха на высоте 2 м над землей.
R - Количество осадков - Количество выпавших осадков за период времени, мм. При наведении курсора мыши на число - период времени, за который выпало указанное количество осадков.
R24 - Количество осадков - Количество выпавших осадков за 24 часа, мм.
S - Снежный покров - Высота снежного покрова, см. При наведении курсора мыши на число - состояние снежного покрова и степень покрытия местности в баллах.